Theta_e
317 316 316 315 315 315 315 314 314 314 314 313 313 313 314 313 313 305 302 309 310 315 313 304 303 302 302 299 300 301 288 285 289 290 293 299 297 304 308 305 308 310 311 321 326
316 316 315 315 314 314 314 313 312 312 312 312 312 313 312 312 304 299 309 314 314 314 303 299 298 299 296 296 296 294 289 289 294 295 295 298 299 301 301 304 305 308 314 317 322
315 315 314 314 314 314 313 312 312 312 312 311 312 312 311 309 299 296 312 314 313 311 303 302 301 298 294 295 293 293 287 293 294 296 297 297 298 301 300 298 304 304 308 316 319
315 314 314 313 313 313 312 312 312 311 311 312 312 311 311 304 287 300 311 311 311 305 302 300 298 294 292 290 294 289 292 293 294 296 295 293 298 297 299 301 306 309 313 315 317
314 313 313 313 313 312 312 311 311 311 312 312 311 311 306 295 294 304 308 307 304 302 299 297 295 294 290 292 292 290 291 294 296 296 296 296 295 296 298 302 306 311 314 315 316
313 313 312 312 312 311 310 311 310 309 311 311 310 310 298 289 302 304 303 302 302 301 299 299 296 297 293 291 290 292 293 293 295 296 296 295 295 297 299 303 302 309 311 311 312
312 312 311 311 311 310 310 310 309 309 308 310 310 305 297 291 301 303 302 300 303 301 297 301 300 296 295 291 295 293 288 293 295 296 294 296 292 293 300 303 304 306 309 310 310
312 311 311 311 310 308 310 309 308 311 307 310 309 302 292 299 302 300 301 299 303 303 302 303 303 298 295 296 293 290 290 286 293 295 296 295 287 296 301 301 303 305 305 306 308
311 311 310 310 310 307 308 307 305 306 308 307 299 297 289 302 296 300 300 296 300 301 301 302 300 295 295 289 287 289 282 285 288 296 295 294 290 297 303 303 302 303 303 304 305
310 310 310 309 308 307 307 305 305 304 302 301 298 292 292 289 295 298 299 298 298 297 296 296 295 290 289 287 278 279 281 284 284 291 292 292 291 296 300 301 301 301 302 302 304
310 310 309 308 306 306 306 300 296 295 294 290 289 288 289 294 298 294 296 296 297 294 288 292 288 284 285 287 286 285 283 284 287 290 290 291 291 295 299 300 300 301 302 303 304
309 309 307 306 304 307 304 296 294 297 287 290 290 291 292 293 288 291 295 289 291 285 290 289 284 288 289 289 287 286 283 284 288 291 290 291 291 295 298 298 300 300 302 303 304
309 308 306 304 306 302 298 295 300 300 290 287 289 289 289 291 286 287 291 289 288 284 286 285 286 290 288 286 284 285 283 284 284 288 291 291 289 292 297 299 300 301 302 304 304
308 306 305 303 300 299 296 300 302 301 288 283 285 288 290 290 285 291 292 288 286 282 284 286 288 287 286 284 286 281 287 286 286 285 283 290 281 290 294 295 297 299 300 303 307
307 304 303 302 297 296 297 301 302 297 282 284 284 292 291 285 285 286 293 287 282 281 283 282 283 284 283 284 287 284 288 286 287 285 285 287 283 285 288 287 290 294 297 303 307
306 302 301 299 299 295 301 300 297 286 278 281 284 283 284 285 284 286 288 289 287 282 284 283 287 286 285 288 288 289 288 288 288 286 280 284 284 281 285 287 291 294 298 300 305
304 300 299 297 293 298 301 296 286 282 284 279 279 282 282 280 281 282 283 281 277 274 276 282 283 287 287 285 288 288 284 279 277 278 278 286 283 282 288 288 290 293 294 300 306
303 303 297 296 298 299 295 291 282 277 279 282 281 281 278 279 279 280 280 277 280 278 275 275 276 282 287 284 281 284 283 277 272 276 279 286 281 282 288 288 289 292 293 295 296
300 301 298 296 296 297 294 284 278 279 280 278 281 277 278 280 279 279 278 277 279 280 273 274 276 285 286 288 287 283 281 286 279 282 280 283 284 287 287 284 285 287 289 291 294
301 298 295 296 296 295 290 280 280 281 281 280 276 278 275 276 276 277 277 279 278 281 282 278 272 284 286 289 288 286 288 280 282 275 274 279 279 277 280 280 282 283 285 287 291
299 293 295 296 296 293 283 280 281 282 282 279 277 276 277 275 276 276 276 279 280 280 282 280 276 279 285 281 279 281 279 282 283 281 276 277 276 283 282 281 280 282 283 285 288
297 294 296 296 290 288 283 282 281 280 282 280 280 278 277 277 275 276 276 278 282 282 278 281 276 274 278 284 286 284 280 280 277 277 281 280 276 284 283 283 282 281 282 285 287
294 293 297 296 286 283 281 280 281 280 280 279 278 279 280 276 273 276 278 282 283 282 279 281 278 274 277 281 284 279 280 281 282 282 278 278 277 283 283 282 282 281 282 284 285
296 289 293 291 287 284 280 278 277 281 280 280 279 280 278 276 278 275 277 280 283 282 284 283 277 274 271 274 278 275 277 279 280 279 277 277 278 278 279 280 282 281 282 283 284
295 286 285 285 283 282 282 279 277 276 280 281 278 278 277 272 274 274 277 279 282 283 282 279 274 277 277 279 278 277 275 277 275 277 276 277 276 276 279 280 282 282 281 282 282
292 288 288 282 282 282 279 278 277 277 278 277 276 278 278 274 275 273 276 277 277 280 277 278 275 277 275 280 278 276 275 276 275 275 277 278 278 279 281 282 282 281 280 280 281
292 291 291 281 281 282 280 279 278 279 280 280 279 278 277 278 280 281 281 281 280 278 276 276 274 274 275 278 276 274 272 274 276 275 275 273 276 279 278 279 282 280 280 280 281
Wind_Speed
13 14 15 15 15 15 15 15 15 14 13 11 9 8 11 12 17 3 10 14 14 17 17 13 12 12 14 12 15 15 6 11 20 22 23 19 10 18 19 20 24 13 20 10 8
13 15 16 16 17 16 16 16 16 15 11 9 7 7 9 9 12 10 11 15 16 16 13 13 14 13 10 12 9 11 14 20 21 8 16 14 13 13 17 17 21 15 23 14 6
14 15 16 17 17 16 16 17 17 12 10 7 7 9 9 9 12 8 15 16 15 14 11 12 12 14 15 11 11 14 15 22 19 14 11 13 12 9 19 18 14 17 14 16 6
14 15 16 17 17 16 16 16 13 9 8 7 9 10 11 8 4 12 16 16 17 11 12 11 12 13 13 9 10 10 16 16 18 19 11 10 13 13 19 16 16 18 12 11 6
15 16 16 17 17 17 17 16 11 7 7 7 9 12 11 1 7 12 13 16 17 11 11 10 14 13 11 14 13 16 17 15 16 17 21 14 20 15 19 17 16 4 9 10 5
14 16 17 17 17 17 17 14 8 6 7 5 9 16 5 7 12 12 16 17 13 10 10 9 10 12 13 14 11 12 16 20 19 20 18 15 18 17 19 15 15 10 13 3 6
15 16 16 18 18 18 19 11 7 6 5 5 7 7 6 8 15 12 17 18 11 9 9 10 8 10 14 14 6 12 14 17 15 15 14 14 18 22 20 18 9 15 17 7 11
15 16 16 18 18 18 18 9 7 8 3 4 7 7 3 7 14 13 17 19 13 7 6 9 8 12 10 11 14 9 7 7 3 6 10 12 11 11 20 17 13 11 8 10 14
15 16 15 17 18 19 18 8 6 3 5 8 5 5 2 11 22 17 19 19 13 6 4 8 7 8 11 12 10 3 10 12 5 9 7 11 9 5 6 10 9 4 4 7 13
15 15 14 16 15 19 16 5 10 4 6 6 5 7 6 19 16 14 23 17 8 11 4 6 7 6 10 10 9 12 12 13 10 10 8 9 12 4 2 6 6 3 2 4 9
15 14 14 15 11 18 9 6 6 5 12 7 5 4 15 19 13 20 25 18 9 8 9 2 6 10 14 10 7 12 9 13 8 8 9 8 10 7 6 2 3 8 7 4 8
15 13 14 13 6 16 4 5 5 5 2 3 5 5 13 16 11 19 25 12 11 11 12 5 8 14 12 6 9 11 8 9 5 8 7 7 6 10 8 8 4 2 4 5 8
13 13 13 11 4 4 11 7 4 2 3 2 3 7 14 13 8 20 23 14 11 10 13 8 12 13 9 6 13 5 8 12 12 14 13 8 5 6 8 7 1 6 6 5 5
13 13 12 10 6 2 5 6 2 2 2 8 8 8 13 14 2 16 20 8 9 11 12 4 12 13 14 10 12 5 10 13 14 9 2 4 5 7 10 6 9 12 8 9 4
12 11 8 11 4 3 5 3 1 4 3 10 5 6 13 15 12 17 16 8 10 13 7 11 12 11 13 13 12 7 15 10 11 6 9 5 2 7 15 11 16 14 14 8 1
8 9 9 2 3 3 3 1 3 2 4 5 5 14 17 16 9 14 17 16 5 7 8 9 5 5 10 18 6 15 8 6 7 3 3 5 4 10 9 13 15 14 9 9 5
5 6 5 3 4 5 2 4 1 5 5 10 9 12 11 17 11 17 12 19 16 12 14 18 3 12 14 12 3 15 9 3 4 4 2 5 7 7 8 15 14 15 17 15 6
3 5 4 6 5 2 4 1 6 1 5 7 10 12 8 14 8 14 9 14 16 15 9 11 6 16 14 9 9 12 7 6 4 2 7 1 4 6 12 14 16 16 15 17 19
2 2 1 7 4 3 3 6 3 4 5 11 9 6 5 13 10 10 13 10 11 16 9 9 6 13 11 10 10 8 6 5 6 6 2 5 5 13 19 21 22 21 20 18 17
2 2 3 8 3 5 5 5 2 3 5 4 7 6 7 13 11 12 14 7 10 14 5 5 9 8 11 9 9 8 10 3 3 4 4 6 7 10 23 23 22 22 21 20 20
2 3 5 4 4 5 5 5 3 4 4 5 5 6 5 7 8 7 9 4 11 14 8 6 3 11 6 9 10 11 10 7 5 4 5 3 6 8 15 14 17 18 17 18 17
1 2 4 3 3 3 3 3 1 3 3 2 2 5 5 9 5 6 8 5 13 13 10 5 5 7 5 5 3 5 12 8 6 8 4 4 6 10 14 13 16 18 18 15 16
1 2 3 4 3 3 4 4 3 1 3 3 3 4 3 6 5 5 7 7 10 10 13 8 2 8 3 3 8 7 18 13 10 5 8 7 6 12 14 15 17 18 19 19 18
1 1 4 5 2 4 5 4 3 2 2 3 3 2 6 3 2 6 9 5 9 7 11 7 4 4 7 9 9 10 15 16 8 4 9 8 7 18 21 19 17 19 17 16 16
2 2 2 3 4 7 4 2 3 2 1 1 1 3 5 3 4 4 6 9 4 7 9 6 4 9 11 6 2 11 14 13 11 11 8 10 6 15 18 18 15 13 16 17 19
3 4 3 4 5 5 3 2 2 3 1 1 1 6 5 3 3 7 7 3 4 8 6 7 6 12 4 5 2 5 16 14 9 12 9 9 4 18 16 15 15 14 17 17 17
2 2 3 3 3 2 3 4 3 3 2 1 3 7 4 3 7 10 10 11 11 9 6 6 8 7 3 6 5 5 10 11 5 10 12 8 12 18 19 19 14 14 15 16 17
Wind_Direction
359 357 352 352 351 349 348 345 342 340 336 336 340 334 333 326 298 14 27 355 344 332 315 322 313 319 309 271 258 261 243 258 263 259 262 274 307 285 243 242 266 305 298 46 16
357 357 354 352 349 349 347 344 342 337 341 346 339 331 328 319 284 45 10 340 333 330 315 328 327 323 307 291 263 246 249 257 256 311 286 282 280 285 291 208 257 280 264 281 2
354 355 355 351 349 347 346 344 340 343 349 357 341 336 321 294 263 16 359 338 335 314 315 299 304 303 294 303 275 259 250 275 288 248 174 291 299 278 284 264 211 256 272 297 352
353 353 354 349 348 347 346 345 348 357 8 353 343 331 310 245 343 360 343 329 324 306 305 312 313 300 306 301 306 270 269 279 277 289 272 218 291 273 270 275 288 229 294 236 272
353 353 351 346 347 346 346 345 345 355 357 346 343 325 295 309 357 346 329 325 320 324 306 311 305 324 306 311 305 284 276 291 293 274 272 256 238 260 272 271 293 290 259 276 327
353 352 349 344 345 345 346 341 334 340 351 351 341 319 327 34 330 320 337 332 345 326 313 299 316 314 286 297 292 293 300 290 273 260 238 246 245 237 250 254 254 238 241 312 354
352 351 347 341 343 345 346 342 338 320 321 333 333 308 289 16 344 349 337 336 324 325 306 315 310 292 313 309 327 290 288 277 242 239 223 237 243 241 250 251 227 224 247 273 313
351 350 347 340 339 344 346 338 341 1 347 345 309 293 339 21 340 346 343 338 330 313 289 292 291 280 266 302 274 239 225 289 100 224 209 212 255 248 226 222 221 244 286 278 306
351 349 346 340 333 342 342 324 343 324 338 301 302 298 9 342 353 341 352 330 317 314 302 283 273 283 294 314 286 268 341 351 343 52 323 206 257 177 217 170 202 235 296 325 308
350 348 343 341 331 342 332 291 322 202 235 246 329 243 22 343 333 317 349 329 314 310 265 260 255 304 358 359 355 332 335 322 318 3 324 238 246 310 100 176 134 95 306 292 304
347 345 342 343 334 344 324 249 226 181 36 38 24 23 328 337 311 4 349 324 330 286 336 235 310 355 346 344 322 300 291 303 311 349 280 263 240 177 145 119 45 36 340 294 282
345 341 344 342 341 340 344 48 48 357 67 59 13 298 350 344 335 4 353 352 336 340 339 216 19 352 321 332 318 294 293 328 329 278 297 276 247 160 164 150 157 98 31 336 306
347 339 347 342 253 321 59 45 334 297 283 50 357 345 340 336 356 358 1 332 348 333 355 329 5 330 320 340 351 348 357 340 307 312 267 274 215 168 141 119 152 23 6 312 297
344 341 348 353 243 14 59 348 319 298 269 17 354 38 350 341 222 9 3 348 2 336 342 310 357 343 334 6 346 299 356 320 306 308 297 352 125 125 145 152 34 359 15 330 239
345 344 346 5 352 26 348 335 247 246 294 360 6 319 349 34 334 0 8 348 10 333 324 23 348 349 353 346 330 328 322 292 278 298 322 128 241 33 41 17 355 348 341 330 30
344 347 326 216 95 23 314 191 239 255 22 8 2 353 351 12 14 343 12 11 47 337 321 306 291 307 346 312 300 323 333 249 242 315 257 336 0 40 15 352 356 355 334 290 353
339 51 22 336 11 342 230 219 0 43 349 343 339 341 338 350 7 3 19 40 35 355 1 323 77 8 5 342 331 354 342 191 180 209 43 19 62 49 14 2 358 357 355 355 9
3 244 58 43 336 267 234 266 52 349 2 358 334 324 25 13 359 351 7 24 35 14 301 339 328 8 352 356 314 312 337 351 318 163 118 104 89 58 35 5 4 8 355 11 6
206 184 5 7 337 266 263 49 43 21 354 339 314 340 11 14 346 347 18 25 19 15 4 347 300 340 355 336 344 342 7 314 285 238 241 101 77 228 10 10 6 6 0 360 352
277 251 48 347 308 253 58 91 58 32 346 338 356 9 329 352 359 4 12 36 356 3 40 4 292 326 337 326 11 335 329 294 273 287 143 94 66 7 3 359 350 0 360 347 349
237 253 46 349 255 52 68 60 96 65 8 6 348 320 342 348 333 349 354 32 8 349 348 317 258 316 341 21 354 3 21 338 285 318 327 134 79 14 6 3 348 352 356 345 338
285 273 23 296 41 43 84 77 65 56 50 34 317 325 326 332 324 324 345 357 359 339 348 19 301 294 332 24 343 313 18 349 338 352 348 316 84 18 14 1 359 355 355 345 345
7 8 65 293 80 99 116 96 65 66 40 20 16 6 347 319 318 341 344 4 1 353 360 351 349 304 177 214 24 3 356 337 306 245 9 324 85 17 8 8 8 1 358 353 349
126 35 37 50 4 103 121 106 125 86 84 6 341 288 349 317 325 307 332 351 348 357 351 321 289 330 318 326 331 353 356 357 324 338 335 33 25 6 2 359 357 1 359 356 353
21 93 15 53 61 94 84 149 128 123 84 359 250 0 350 298 303 316 337 334 346 16 2 15 285 331 302 281 332 31 13 10 18 355 25 344 38 10 353 346 347 358 355 358 3
128 142 81 81 108 105 10 102 130 129 106 108 294 334 306 245 324 306 334 322 331 342 355 339 309 325 275 218 237 1 23 5 21 2 358 346 65 2 342 341 347 1 358 356 355
111 59 132 152 126 161 105 148 140 146 153 327 330 313 289 307 320 305 294 280 281 305 320 330 332 336 325 334 310 205 12 357 355 24 342 14 340 338 341 344 346 4 358 348 352